Portada
METAR-TAF:

METAR-TAF

Aeroports :

Thoothukudi, Índia

latitud: 8-43-27N, longitud: 78-01-33E, altitud: 39 m

Observació

L'informe es va fer fa 3 hores i 9 minuts, a les 08:00 UTC
Vent 8 kt del Nord-Oest
Temperatura 40°C
Humitat 36%
Pressió 1007 hPa
Visibilitat: 6000 m
Escasses núvols a una alçada de 2000 ft

METAR: VOTK 250800Z 32008KT 6000 FEW020 40/22 Q1007 NOSIG

Hora: 16:39 (11:09 UTC)


TAF: manca

Observacions i pronòstics meteorològics de més de 4000 aeroports (METAR i TAF).

Les estacions disponibles són els punts grocs i vermells al mapa.

Posi el ratolí al punt desitjat per veure el nom de l'estació.

Feu clic per veure les observacions i els pronòstics meteorològics.

Per canviar el mapa: feu clic els botons verds amb una creu de color negre per apropar; al botó verd amb un guió per allunyar la imatge; o en les fletxes verdes per a mapes adjacents.


METAR-TAF: